Weather History for Hulett, WY

Change the Weather History Date:

Wednesday, December 11, 2013

  Actual Average (KEFC) Record (KEFC)
Temperature  
Mean Temperature 18 °F -  
Max Temperature 26 °F 43 °F 61 °F (1980)
Min Temperature 10 °F 13 °F -22 °F (1972)
Degree Days  
Heating Degree Days 47    
Moisture  
Dew Point 9 °F    
Average Humidity 68    
Maximum Humidity 92    
Minimum Humidity 51    
Precipitation  
Precipitation 0.00 in - - ()
Sea Level Pressure  
Sea Level Pressure 30.19 in    
Wind  
Wind Speed 11 mph (SW)    
Max Wind Speed 14 mph    
Max Gust Speed 17 mph    
Visibility 10 miles    
Events Snow    
Averages and records for this station are not official NWS values.
T = Trace of Precipitation, MM = Missing Value Source: NWS Daily Summary

Daily Weather History Graph

Daily Weather History Graph

Search for Another Location

Airport:

Trip Planner

Search our weather history database for the weather conditions in past years. The results will help you decide how hot, cold, wet, or windy it might be!

Date:

Astronomy

Dec. 11, 2013 Rise Set
Actual Time 7:25 AM MST 4:17 PM MST
Civil Twilight 6:52 AM MST 4:51 PM MST
Nautical Twilight 6:15 AM MST 5:28 PM MST
Astronomical Twilight 5:39 AM MST 6:03 PM MST
Moon 1:02 PM MST (12/11) 1:38 AM MST (12/11)
Length of Visible Light 9h 59m
Length of Day
8h 52m
Waxing Gibbous, 72% of the Moon is Illuminated
Dec 11
Waxing Gibbous
Dec 17
Full
Dec 25
Last Quarter
Jan 1
New
Jan 7
First Quarter

Hourly Weather History & Observations

Time (MST) Temp. Windchill Dew Point Humidity Pressure Visibility Wind Dir Wind Speed Gust Speed Precip Events Conditions
12:15 AM 10.4 °F - 8.6 °F 92% 30.24 in 10.0 mi North - - N/A Snow Light Snow
12:35 AM 10.4 °F - 8.6 °F 92% 30.23 in 7.0 mi North - - N/A Snow Light Snow
12:55 AM 12.2 °F - 8.6 °F 85% 30.23 in 5.0 mi North - - N/A Snow Light Snow
1:15 AM 12.2 °F - 8.6 °F 85% 30.23 in 7.0 mi North - - N/A Snow Light Snow
1:35 AM 12.2 °F -1.8 °F 8.6 °F 85% 30.23 in 10.0 mi SW 11.5 mph - N/A Snow Light Snow
1:55 AM 12.2 °F -3.1 °F 8.6 °F 85% 30.23 in 10.0 mi SW 13.8 mph - N/A   Overcast
2:15 AM 12.2 °F - 8.6 °F 85% 30.22 in 10.0 mi North - - N/A   Overcast
2:35 AM 12.2 °F - 8.6 °F 85% 30.22 in 10.0 mi North - - N/A   Mostly Cloudy
2:55 AM 12.2 °F - 8.6 °F 85% 30.22 in 10.0 mi North - - N/A   Overcast
3:15 AM 12.2 °F - 8.6 °F 85% 30.22 in 10.0 mi North - - N/A   Overcast
3:35 AM 10.4 °F - 6.8 °F 85% 30.21 in 10.0 mi North - - N/A   Mostly Cloudy
3:55 AM 10.4 °F - 5.0 °F 79% 30.20 in 10.0 mi North - - N/A   Scattered Clouds
4:15 AM 10.4 °F - 5.0 °F 79% 30.20 in 10.0 mi North - - N/A   Clear
4:35 AM 10.4 °F - 5.0 °F 79% 30.20 in 10.0 mi North - - N/A   Clear
4:55 AM 12.2 °F - 6.8 °F 79% 30.20 in 10.0 mi North - - N/A   Clear
5:15 AM 12.2 °F - 6.8 °F 79% 30.20 in 10.0 mi North - - N/A   Clear
5:35 AM 12.2 °F - 6.8 °F 79% 30.20 in 10.0 mi North - - N/A   Clear
5:55 AM 12.2 °F -1.0 °F 5.0 °F 73% 30.20 in 10.0 mi SW 10.4 mph - N/A   Clear
6:15 AM 12.2 °F -1.8 °F 6.8 °F 79% 30.19 in 10.0 mi SW 11.5 mph - N/A   Clear
6:35 AM 12.2 °F -1.8 °F 5.0 °F 73% 30.19 in 10.0 mi SW 11.5 mph - N/A   Clear
6:55 AM 10.4 °F -2.4 °F 3.2 °F 73% 30.20 in 10.0 mi SW 9.2 mph - N/A   Clear
7:15 AM 12.2 °F -1.0 °F 5.0 °F 73% 30.19 in 10.0 mi SW 10.4 mph - N/A   Clear
7:35 AM 12.2 °F - 5.0 °F 73% 30.20 in 10.0 mi North - - N/A   Clear
7:55 AM 12.2 °F -1.8 °F 5.0 °F 73% 30.20 in 10.0 mi SW 11.5 mph - N/A   Clear
8:15 AM 14.0 °F 1.2 °F 6.8 °F 73% 30.20 in 10.0 mi SW 10.4 mph - N/A   Clear
8:35 AM 14.0 °F 2.0 °F 6.8 °F 73% 30.20 in 10.0 mi SW 9.2 mph - N/A   Clear
8:55 AM 14.0 °F 2.0 °F 8.6 °F 79% 30.20 in 10.0 mi SW 9.2 mph - N/A   Clear
9:15 AM 17.6 °F 5.0 °F 8.6 °F 68% 30.20 in 10.0 mi SW 11.5 mph - N/A   Clear
9:35 AM 17.6 °F 5.7 °F 8.6 °F 68% 30.21 in 10.0 mi SW 10.4 mph - N/A   Clear
9:55 AM 19.4 °F 8.6 °F 10.4 °F 68% 30.21 in 10.0 mi SW 9.2 mph - N/A   Clear
10:15 AM 19.4 °F 7.9 °F 10.4 °F 68% 30.20 in 10.0 mi SW 10.4 mph - N/A   Clear
10:35 AM 21.2 °F 9.5 °F 10.4 °F 63% 30.19 in 10.0 mi SW 11.5 mph - N/A   Clear
10:55 AM 23.0 °F 11.1 °F 12.2 °F 63% 30.18 in 10.0 mi SW 12.7 mph - N/A   Clear
11:15 AM 23.0 °F 10.6 °F 12.2 °F 63% 30.18 in 10.0 mi SW 13.8 mph - N/A   Clear
11:35 AM 23.0 °F 11.1 °F 12.2 °F 63% 30.17 in 10.0 mi SW 12.7 mph - N/A   Clear
11:55 AM 23.0 °F 13.9 °F 12.2 °F 63% 30.16 in 10.0 mi WSW 8.1 mph - N/A   Clear
12:15 PM 24.8 °F 13.4 °F 12.2 °F 59% 30.15 in 10.0 mi SW 12.7 mph - N/A   Clear
12:35 PM 24.8 °F 14.6 °F 12.2 °F 59% 30.15 in 10.0 mi SW 10.4 mph - N/A   Clear
12:55 PM 26.6 °F 16.2 °F 12.2 °F 55% 30.15 in 10.0 mi SW 11.5 mph 16.1 mph N/A   Clear
1:15 PM 26.6 °F 16.2 °F 12.2 °F 55% 30.15 in 10.0 mi SW 11.5 mph 16.1 mph N/A   Clear
1:35 PM 26.6 °F 16.2 °F 12.2 °F 55% 30.15 in 10.0 mi SW 11.5 mph - N/A   Clear
1:55 PM 26.6 °F 15.7 °F 12.2 °F 55% 30.15 in 10.0 mi SW 12.7 mph 17.3 mph N/A   Clear
2:15 PM 26.6 °F 16.8 °F 12.2 °F 55% 30.15 in 10.0 mi SW 10.4 mph - N/A   Clear
2:35 PM 26.6 °F 15.2 °F 12.2 °F 55% 30.15 in 10.0 mi SW 13.8 mph - N/A   Clear
2:55 PM 26.6 °F 16.8 °F 10.4 °F 51% 30.15 in 10.0 mi SW 10.4 mph 17.3 mph N/A   Clear
3:15 PM 26.6 °F 17.5 °F 10.4 °F 51% 30.15 in 10.0 mi SW 9.2 mph - N/A   Clear
3:35 PM 26.6 °F 16.2 °F 10.4 °F 51% 30.16 in 10.0 mi SW 11.5 mph - N/A   Clear
3:55 PM 24.8 °F 14.6 °F 10.4 °F 54% 30.16 in 10.0 mi SW 10.4 mph - N/A   Clear
4:15 PM 23.0 °F 12.4 °F 10.4 °F 59% 30.17 in 10.0 mi SW 10.4 mph - N/A   Clear
4:35 PM 23.0 °F 11.7 °F 10.4 °F 59% 30.17 in 10.0 mi SW 11.5 mph - N/A   Clear
4:55 PM 23.0 °F 12.4 °F 8.6 °F 54% 30.17 in 10.0 mi SW 10.4 mph - N/A   Clear
5:15 PM 23.0 °F 11.7 °F 8.6 °F 54% 30.18 in 10.0 mi SW 11.5 mph - N/A   Clear
5:35 PM 23.0 °F 13.1 °F 8.6 °F 54% 30.18 in 10.0 mi SW 9.2 mph - N/A   Clear
5:55 PM 21.2 °F 12.6 °F 10.4 °F 63% 30.19 in 10.0 mi SW 6.9 mph - N/A   Clear
6:15 PM 21.2 °F 11.7 °F 8.6 °F 58% 30.18 in 10.0 mi SW 8.1 mph - N/A   Clear
6:35 PM 21.2 °F 10.1 °F 8.6 °F 58% 30.19 in 10.0 mi SW 10.4 mph - N/A   Clear
6:55 PM 21.2 °F 10.1 °F 8.6 °F 58% 30.19 in 10.0 mi SW 10.4 mph - N/A   Clear
7:15 PM 21.2 °F 10.9 °F 8.6 °F 58% 30.19 in 10.0 mi SSW 9.2 mph - N/A   Clear
7:35 PM 19.4 °F 8.6 °F 8.6 °F 63% 30.19 in 10.0 mi SW 9.2 mph - N/A   Clear
7:55 PM 19.4 °F 7.9 °F 8.6 °F 63% 30.18 in 10.0 mi SSW 10.4 mph - N/A   Clear
8:15 PM 17.6 °F 5.7 °F 8.6 °F 68% 30.18 in 10.0 mi SSW 10.4 mph - N/A   Clear
8:35 PM 19.4 °F 8.6 °F 8.6 °F 63% 30.18 in 10.0 mi SSW 9.2 mph - N/A   Clear
8:55 PM 17.6 °F 8.2 °F 8.6 °F 68% 30.18 in 10.0 mi WSW 6.9 mph - N/A   Clear
9:15 PM 17.6 °F 6.4 °F 8.6 °F 68% 30.17 in 10.0 mi SSW 9.2 mph - N/A   Clear
9:35 PM 19.4 °F 9.5 °F 8.6 °F 63% 30.17 in 10.0 mi SSW 8.1 mph - N/A   Clear
9:55 PM 19.4 °F 7.9 °F 8.6 °F 63% 30.17 in 10.0 mi SSW 10.4 mph - N/A   Clear
10:15 PM 21.2 °F 11.7 °F 8.6 °F 58% 30.17 in 10.0 mi WSW 8.1 mph - N/A   Clear
10:35 PM 19.4 °F 8.6 °F 8.6 °F 63% 30.17 in 10.0 mi SSW 9.2 mph - N/A   Clear
10:55 PM 21.2 °F 10.9 °F 8.6 °F 58% 30.17 in 10.0 mi SW 9.2 mph - N/A   Clear
11:15 PM 17.6 °F 8.2 °F 8.6 °F 68% 30.16 in 10.0 mi WSW 6.9 mph - N/A   Clear
11:35 PM 17.6 °F 6.4 °F 8.6 °F 68% 30.16 in 10.0 mi SW 9.2 mph - N/A   Clear
11:55 PM 17.6 °F - 8.6 °F 68% 30.15 in 10.0 mi North - - N/A   Clear